sat.trackr.live / text

‹ back to catalog

QIANFAN-48

NORAD 62249 · 2024-232N

PAYLOAD ACTIVE UNKNOWN

§ Identity

Operator
Country
PRC
Launch date
2024-12-05
Launch site
TAISC
Launch vehicle
Mass (kg)
RCS (m²)

External: N2YO · Heavens-Above · Gunter

§ Orbital elements

Epoch: 2026-09-22T21:13:02.594784Z

Period
106.59 min
Inclination
89.0167°
Eccentricity
0.0019059
Mean motion
13.51023857 rev/d
Perigee alt
1,054.3 km
Apogee alt
1,082.7 km
Semi-major
7,446.6 km
B*
1.3380e-4
RAAN
12.7161°
Arg perigee
100.3427°
Mean anomaly
259.9874°
Rev number
13,761

§ Raw data

QIANFAN-481 62249U 24232N   26265.88405781  .00000099  00000+0  13380-3 0  99932 62249  89.0167  12.7161 0019059 100.3427 259.9874 13.51023857137612

JSON: /api/v1/satellites/62249 · /tle

For live sub-satellite position, see the globe view (requires WebGL).

§ Visibility from observer

Set your observer location to see the next 7 days of passes ≥ 10°. The values pass through the URL so the page stays shareable.

No JS? Fill the form by hand. The geolocation button needs JavaScript.